Shannon, Ireland

6:07 AM GMT on December 16, 2017 (GMT +0000)
Shannon

Weather History for EINN - October, 2012

Change the Weather History Date:

Friday, October 19, 2012

  Actual Average Record
Temperature  
Mean Temperature 52 °F -  
Max Temperature 55 °F 54 °F 68 °F (1997)
Min Temperature 48 °F 42 °F 33 °F (2002)
Degree Days  
Heating Degree Days 14    
Growing Degree Days 2 (Base 50)    
Moisture  
Dew Point 48 °F    
Average Humidity 89    
Maximum Humidity 100    
Minimum Humidity 72    
Precipitation  
Precipitation 0.00 in 0.12 in - ()
Sea Level Pressure  
Sea Level Pressure 29.72 in    
Wind  
Wind Speed 8 mph ()    
Max Wind Speed 13 mph    
Max Gust Speed -    
Visibility 6.8 miles    
Events      
Averages and records for this station are not official NWS values.
T = Trace of Precipitation, MM = Missing Value Source: Averaged Metar Reports

Daily Weather History Graph

Daily Weather History Graph

Search for Another Location

Airport or City:

Trip Planner

Search our weather history database for the weather conditions in past years. The results will help you decide how hot, cold, wet, or windy it might be!

Date:

Astronomy

Oct. 19, 2012 Rise Set
Actual Time 8:09 AM IST 6:30 PM IST
Civil Twilight 7:34 AM IST 7:05 PM IST
Nautical Twilight 6:54 AM IST 7:45 PM IST
Astronomical Twilight 6:14 AM IST 8:25 PM IST
Moon 1:08 PM IST (10/19) 9:25 PM IST (10/19)
Length of Visible Light 11h 31m
Length of Day
10h 21m
Waxing Crescent, 21% of the Moon is Illuminated
Oct 19
Waxing Crescent
Oct 22
First Quarter
Oct 29
Full
Nov 7
Last Quarter
Nov 13
New

Hourly Weather History & Observations

Time (IST) Temp. Dew Point Humidity Pressure Visibility Wind Dir Wind Speed Gust Speed Precip Events Conditions
12:00 AM 51.8 °F 50.0 °F 94% 29.59 in 6.2 mi NNW 8.1 mph - N/A   Mostly Cloudy
12:30 AM 51.8 °F 50.0 °F 94% 29.59 in 6.2 mi NNW 9.2 mph - N/A   Mostly Cloudy
1:00 AM 51 °F 49 °F 92% 29.63 in 12 mi NNW 11.2 mph - -   Partly Cloudy
1:00 AM 50.0 °F 50.0 °F 100% 29.62 in 6.2 mi NNW 11.5 mph - N/A   Mostly Cloudy
1:30 AM 50.0 °F 50.0 °F 100% 29.62 in 6.2 mi NNW 8.1 mph - N/A   Mostly Cloudy
2:00 AM 50.0 °F 50.0 °F 100% 29.62 in 6.2 mi NNW 9.2 mph - N/A   Mostly Cloudy
2:30 AM 50.0 °F 50.0 °F 100% 29.62 in 6.2 mi North 9.2 mph - N/A   Mostly Cloudy
3:00 AM 51.8 °F 50.0 °F 94% 29.65 in 6.2 mi NNW 11.5 mph - N/A   Mostly Cloudy
3:30 AM 51.8 °F 50.0 °F 94% 29.65 in 6.2 mi North 10.4 mph - N/A   Mostly Cloudy
4:00 AM 50.0 °F 50.0 °F 100% 29.65 in 6.2 mi North 10.4 mph - N/A   Mostly Cloudy
4:30 AM 50.0 °F 50.0 °F 100% 29.68 in 6.2 mi North 8.1 mph - N/A   Mostly Cloudy
5:00 AM 50.0 °F 50.0 °F 100% 29.68 in 6.2 mi North 9.2 mph - N/A   Mostly Cloudy
5:30 AM 50.0 °F 48.2 °F 94% 29.68 in 6.2 mi North 10.4 mph - N/A   Mostly Cloudy
6:00 AM 50.0 °F 48.2 °F 94% 29.71 in 6.2 mi North 11.5 mph - N/A   Mostly Cloudy
6:30 AM 50.0 °F 48.2 °F 94% 29.71 in 6.2 mi North 10.4 mph - N/A   Mostly Cloudy
7:00 AM 50 °F 48 °F 89% 29.72 in 12 mi North 11.2 mph - -   Overcast
7:00 AM 50.0 °F 48.2 °F 94% 29.71 in 6.2 mi North 10.4 mph - N/A   Mostly Cloudy
7:30 AM 50.0 °F 48.2 °F 94% 29.71 in 6.2 mi NNW 11.5 mph - N/A   Mostly Cloudy
8:00 AM 50.0 °F 46.4 °F 87% 29.71 in 6.2 mi NNW 12.7 mph - N/A   Mostly Cloudy
8:30 AM 48.2 °F 46.4 °F 93% 29.74 in 6.2 mi North 12.7 mph - N/A   Mostly Cloudy
9:00 AM 48.2 °F 46.4 °F 93% 29.74 in 6.2 mi North 11.5 mph - N/A   Partly Cloudy
9:30 AM 48.2 °F 46.4 °F 93% 29.74 in 6.2 mi North 11.5 mph - N/A   Scattered Clouds
10:00 AM 50.0 °F 46.4 °F 87% 29.74 in 6.2 mi North 9.2 mph - N/A   Scattered Clouds
10:30 AM 50.0 °F 46.4 °F 87% 29.77 in 6.2 mi North 5.8 mph - N/A   Mostly Cloudy
11:00 AM 50.0 °F 46.4 °F 87% 29.77 in 6.2 mi North 5.8 mph - N/A   Mostly Cloudy
11:30 AM 51.8 °F 48.2 °F 88% 29.77 in 6.2 mi NNW 8.1 mph - N/A   Mostly Cloudy
12:00 PM 51.8 °F 48.2 °F 88% 29.77 in 6.2 mi North 10.4 mph - N/A   Scattered Clouds
12:30 PM 51.8 °F 48.2 °F 88% 29.77 in 6.2 mi NNW 9.2 mph - N/A   Scattered Clouds
1:00 PM 53 °F 48 °F 77% 29.77 in 16 mi North 8.9 mph - -   Partly Cloudy
1:00 PM 53.6 °F 48.2 °F 82% 29.77 in 6.2 mi North 9.2 mph - N/A   Scattered Clouds
1:30 PM 55.4 °F 48.2 °F 77% 29.74 in 6.2 mi NE 6.9 mph - N/A   Mostly Cloudy
2:00 PM 53.6 °F 46.4 °F 77% 29.74 in 6.2 mi NNW 6.9 mph - N/A   Mostly Cloudy
2:30 PM 53.6 °F 46.4 °F 77% 29.74 in 6.2 mi NNW 3.5 mph - N/A   Mostly Cloudy
3:00 PM 53.6 °F 48.2 °F 82% 29.74 in 6.2 mi North 5.8 mph - N/A   Scattered Clouds
3:30 PM 53.6 °F 46.4 °F 77% 29.74 in 6.2 mi North 5.8 mph - N/A   Mostly Cloudy
4:00 PM 55.4 °F 46.4 °F 72% 29.74 in 6.2 mi NNW 4.6 mph - N/A   Mostly Cloudy
4:30 PM 55.4 °F 46.4 °F 72% 29.74 in 6.2 mi NE 6.9 mph - N/A   Mostly Cloudy
5:00 PM 55.4 °F 46.4 °F 72% 29.74 in 6.2 mi NE 5.8 mph - N/A   Mostly Cloudy
5:30 PM 53.6 °F 48.2 °F 82% 29.74 in 6.2 mi NE 6.9 mph - N/A   Mostly Cloudy
6:00 PM 53.6 °F 48.2 °F 82% 29.77 in 6.2 mi North 2.3 mph - N/A   Mostly Cloudy
6:30 PM 51.8 °F 48.2 °F 88% 29.77 in 6.2 mi North 3.5 mph - N/A   Mostly Cloudy
7:00 PM 51 °F 47 °F 83% 29.79 in 16 mi North 4.5 mph - -   Mostly Cloudy
7:00 PM 51.8 °F 48.2 °F 88% 29.77 in 6.2 mi North 3.5 mph - N/A   Mostly Cloudy
7:30 PM 51.8 °F 48.2 °F 88% 29.77 in 6.2 mi North 4.6 mph - N/A   Mostly Cloudy
8:00 PM 50.0 °F 48.2 °F 94% 29.77 in 6.2 mi NNE 1.2 mph - N/A   Mostly Cloudy
8:30 PM 51.8 °F 48.2 °F 88% 29.77 in 6.2 mi East 1.2 mph - N/A   Mostly Cloudy
9:00 PM 50.0 °F 48.2 °F 94% 29.77 in 6.2 mi Calm Calm - N/A   Mostly Cloudy
9:30 PM 50.0 °F 48.2 °F 94% 29.77 in 6.2 mi Calm Calm - N/A   Mostly Cloudy
10:00 PM 50.0 °F 48.2 °F 94% 29.77 in 6.2 mi NE 3.5 mph - N/A   Mostly Cloudy
10:30 PM 50.0 °F 48.2 °F 94% 29.77 in 6.2 mi Calm Calm - N/A   Mostly Cloudy
11:00 PM 50.0 °F 48.2 °F 94% 29.77 in 6.2 mi NNW 1.2 mph - N/A   Overcast
11:30 PM 50.0 °F 48.2 °F 94% 29.77 in 6.2 mi Calm Calm - N/A   Overcast